owner,sensor,date,latitude,longitude,vertical_datum,mass_concentration_of_oxygen_in_sea_water,qcFlag 
NERRS,ioos:station:NOAA.NERRS:apaebwq:1,2017-08-01T00:45:00Z,29.7858,-84.8752,25.11,1.9,1111122 
NERRS,ioos:station:NOAA.NERRS:apaebwq:1,2017-08-01T01:45:00Z,29.7858,-84.8752,20.83,2.0,1111122 
NERRS,ioos:station:NOAA.NERRS:apaebwq:1,2017-08-01T02:45:00Z,29.7858,-84.8752,16.84,2.1,1111122 
NERRS,ioos:station:NOAA.NERRS:apaebwq:1,2017-08-01T03:45:00Z,29.7858,-84.8752,17.21,2.1,1111122 
NERRS,ioos:station:NOAA.NERRS:apaebwq:1,2017-08-01T04:45:00Z,29.7858,-84.8752,17.27,2.1,1111122 
NERRS,ioos:station:NOAA.NERRS:apaebwq:1,2017-08-01T05:45:00Z,29.7858,-84.8752,11.59,2.1,1111122 
NERRS,ioos:station:NOAA.NERRS:apaebwq:1,2017-08-01T06:45:00Z,29.7858,-84.8752,16.43,2.1,1111122 
NERRS,ioos:station:NOAA.NERRS:apaebwq:1,2017-08-01T07:45:00Z,29.7858,-84.8752,17.77,2.1,1111122 
NERRS,ioos:station:NOAA.NERRS:apaebwq:1,2017-08-01T08:45:00Z,29.7858,-84.8752,9.77,2.1,1111122 
NERRS,ioos:station:NOAA.NERRS:apaebwq:1,2017-08-01T09:45:00Z,29.7858,-84.8752,15.93,2.1,1111122 
NERRS,ioos:station:NOAA.NERRS:apaebwq:1,2017-08-01T10:45:00Z,29.7858,-84.8752,18.62,2.1,1111122 
NERRS,ioos:station:NOAA.NERRS:apaebwq:1,2017-08-01T11:45:00Z,29.7858,-84.8752,18.39,2.2,1111122 
NERRS,ioos:station:NOAA.NERRS:apaebwq:1,2017-08-01T12:45:00Z,29.7858,-84.8752,18.63,2.2,1111122 
NERRS,ioos:station:NOAA.NERRS:apaebwq:1,2017-08-01T13:45:00Z,29.7858,-84.8752,14.95,2.3,1111122 
NERRS,ioos:station:NOAA.NERRS:apaebwq:1,2017-08-01T14:45:00Z,29.7858,-84.8752,20.32,2.3,1111122 
NERRS,ioos:station:NOAA.NERRS:apaebwq:1,2017-08-01T15:45:00Z,29.7858,-84.8752,11.4,2.3,1111122 
NERRS,ioos:station:NOAA.NERRS:apaebwq:1,2017-08-01T16:45:00Z,29.7858,-84.8752,26.59,2.2,1111122 
NERRS,ioos:station:NOAA.NERRS:apaebwq:1,2017-08-01T18:45:00Z,29.7858,-84.8752,23.02,2.1,1111122 
NERRS,ioos:station:NOAA.NERRS:apaebwq:1,2017-08-01T19:45:00Z,29.7858,-84.8752,31.33,2.0,1111122 
NERRS,ioos:station:NOAA.NERRS:apaebwq:1,2017-08-01T21:45:00Z,29.7858,-84.8752,22.17,1.8,1111122 
NERRS,ioos:station:NOAA.NERRS:apaebwq:1,2017-08-02T00:45:00Z,29.7858,-84.8752,21.57,1.9,1111122 
NERRS,ioos:station:NOAA.NERRS:apaebwq:1,2017-08-02T01:45:00Z,29.7858,-84.8752,17.55,2.0,1111122 
NERRS,ioos:station:NOAA.NERRS:apaebwq:1,2017-08-02T02:45:00Z,29.7858,-84.8752,17.58,2.1,1111122 
NERRS,ioos:station:NOAA.NERRS:apaebwq:1,2017-08-02T03:45:00Z,29.7858,-84.8752,15.68,2.1,1111122 
NERRS,ioos:station:NOAA.NERRS:apaebwq:1,2017-08-02T05:45:00Z,29.7858,-84.8752,18.24,2.2,1111122 
NERRS,ioos:station:NOAA.NERRS:apaebwq:1,2017-08-02T07:45:00Z,29.7858,-84.8752,18.46,2.2,1111122 
NERRS,ioos:station:NOAA.NERRS:apaebwq:1,2017-08-02T08:45:00Z,29.7858,-84.8752,15.29,2.2,1111122 
NERRS,ioos:station:NOAA.NERRS:apaebwq:1,2017-08-02T09:45:00Z,29.7858,-84.8752,11.42,2.2,1111122 
NERRS,ioos:station:NOAA.NERRS:apaebwq:1,2017-08-02T10:45:00Z,29.7858,-84.8752,17.68,2.2,1111122 
NERRS,ioos:station:NOAA.NERRS:apaebwq:1,2017-08-02T11:45:00Z,29.7858,-84.8752,21.36,2.3,1111122 
NERRS,ioos:station:NOAA.NERRS:apaebwq:1,2017-08-02T12:45:00Z,29.7858,-84.8752,19.71,2.3,1111122 
NERRS,ioos:station:NOAA.NERRS:apaebwq:1,2017-08-02T14:45:00Z,29.7858,-84.8752,29.47,2.4,1111122 
NERRS,ioos:station:NOAA.NERRS:apaebwq:1,2017-08-02T15:45:00Z,29.7858,-84.8752,29.25,2.4,1111122 
NERRS,ioos:station:NOAA.NERRS:apaebwq:1,2017-08-02T16:45:00Z,29.7858,-84.8752,26.97,2.3,1111122 
NERRS,ioos:station:NOAA.NERRS:apaebwq:1,2017-08-02T17:45:00Z,29.7858,-84.8752,31.46,2.3,1111122 
NERRS,ioos:station:NOAA.NERRS:apaebwq:1,2017-08-02T18:45:00Z,29.7858,-84.8752,28.52,2.2,1111122 
NERRS,ioos:station:NOAA.NERRS:apaebwq:1,2017-08-02T19:45:00Z,29.7858,-84.8752,18.5,2.1,1111122 
NERRS,ioos:station:NOAA.NERRS:apaebwq:1,2017-08-02T23:45:00Z,29.7858,-84.8752,24.39,1.9,1111122 
NERRS,ioos:station:NOAA.NERRS:apaebwq:1,2017-08-03T00:45:00Z,29.7858,-84.8752,23.13,1.9,1111122 
NERRS,ioos:station:NOAA.NERRS:apaebwq:1,2017-08-03T02:45:00Z,29.7858,-84.8752,20.79,2.1,1111122 
NERRS,ioos:station:NOAA.NERRS:apaebwq:1,2017-08-03T04:45:00Z,29.7858,-84.8752,26.85,2.3,1111122 
NERRS,ioos:station:NOAA.NERRS:apaebwq:1,2017-08-03T06:45:00Z,29.7858,-84.8752,16.43,2.3,1111122 
NERRS,ioos:station:NOAA.NERRS:apaebwq:1,2017-08-03T08:45:00Z,29.7858,-84.8752,20.13,2.3,1111122 
NERRS,ioos:station:NOAA.NERRS:apaebwq:1,2017-08-03T09:45:00Z,29.7858,-84.8752,19.48,2.2,1111122 
NERRS,ioos:station:NOAA.NERRS:apaebwq:1,2017-08-03T10:45:00Z,29.7858,-84.8752,17.8,2.2,1111122 
NERRS,ioos:station:NOAA.NERRS:apaebwq:1,2017-08-03T11:45:00Z,29.7858,-84.8752,24.76,2.3,1111122 
NERRS,ioos:station:NOAA.NERRS:apaebwq:1,2017-08-03T12:45:00Z,29.7858,-84.8752,26.57,2.3,1111122 
NERRS,ioos:station:NOAA.NERRS:apaebwq:1,2017-08-03T13:45:00Z,29.7858,-84.8752,24.44,2.3,1111122 
NERRS,ioos:station:NOAA.NERRS:apaebwq:1,2017-08-03T14:45:00Z,29.7858,-84.8752,23.82,2.4,1111122 
NERRS,ioos:station:NOAA.NERRS:apaebwq:1,2017-08-03T16:45:00Z,29.7858,-84.8752,22.59,2.4,1111122 
NERRS,ioos:station:NOAA.NERRS:apaebwq:1,2017-08-03T17:45:00Z,29.7858,-84.8752,17.51,2.4,1111122 
NERRS,ioos:station:NOAA.NERRS:apaebwq:1,2017-08-03T23:45:00Z,29.7858,-84.8752,48.84,1.9,1111122 
NERRS,ioos:station:NOAA.NERRS:apaebwq:1,2017-08-04T02:45:00Z,29.7858,-84.8752,15.29,1.9,1111122 
NERRS,ioos:station:NOAA.NERRS:apaebwq:1,2017-08-04T05:45:00Z,29.7858,-84.8752,17.81,2.3,1111122 
NERRS,ioos:station:NOAA.NERRS:apaebwq:1,2017-08-04T15:45:00Z,29.7858,-84.8752,35.43,2.4,1111122 
NERRS,ioos:station:NOAA.NERRS:apaebwq:1,2017-08-04T20:45:00Z,29.7858,-84.8752,20.55,2.2,1111122 
NERRS,ioos:station:NOAA.NERRS:apaebwq:1,2017-08-04T22:45:00Z,29.7858,-84.8752,22.93,2.0,1111122 
NERRS,ioos:station:NOAA.NERRS:apaebwq:1,2017-08-05T04:45:00Z,29.7858,-84.8752,15.66,2.1,1111122 
NERRS,ioos:station:NOAA.NERRS:apaebwq:1,2017-08-05T05:45:00Z,29.7858,-84.8752,18.73,2.2,1111122 
NERRS,ioos:station:NOAA.NERRS:apaebwq:1,2017-08-05T06:45:00Z,29.7858,-84.8752,20.27,2.3,1111122 
NERRS,ioos:station:NOAA.NERRS:apaebwq:1,2017-08-05T07:45:00Z,29.7858,-84.8752,12.21,2.4,1111122 
NERRS,ioos:station:NOAA.NERRS:apaebwq:1,2017-08-05T08:45:00Z,29.7858,-84.8752,17.33,2.4,1111122 
NERRS,ioos:station:NOAA.NERRS:apaebwq:1,2017-08-05T10:45:00Z,29.7858,-84.8752,15.3,2.4,1111122 
NERRS,ioos:station:NOAA.NERRS:apaebwq:1,2017-08-05T11:45:00Z,29.7858,-84.8752,17.69,2.3,1111122 
NERRS,ioos:station:NOAA.NERRS:apaebwq:1,2017-08-05T12:45:00Z,29.7858,-84.8752,18.51,2.3,1111122 
NERRS,ioos:station:NOAA.NERRS:apaebwq:1,2017-08-05T13:45:00Z,29.7858,-84.8752,26.13,2.3,1111122 
NERRS,ioos:station:NOAA.NERRS:apaebwq:1,2017-08-05T15:45:00Z,29.7858,-84.8752,13.28,2.3,1111122 
NERRS,ioos:station:NOAA.NERRS:apaebwq:1,2017-08-05T16:45:00Z,29.7858,-84.8752,11.08,2.4,1111122 
NERRS,ioos:station:NOAA.NERRS:apaebwq:1,2017-08-05T17:45:00Z,29.7858,-84.8752,35.76,2.4,1111122 
NERRS,ioos:station:NOAA.NERRS:apaebwq:1,2017-08-05T18:45:00Z,29.7858,-84.8752,32.31,2.4,1111122 
NERRS,ioos:station:NOAA.NERRS:apaebwq:1,2017-08-05T19:45:00Z,29.7858,-84.8752,24.31,2.3,1111122 
NERRS,ioos:station:NOAA.NERRS:apaebwq:1,2017-08-05T21:45:00Z,29.7858,-84.8752,17.33,2.2,1111122 
NERRS,ioos:station:NOAA.NERRS:apaebwq:1,2017-08-06T02:45:00Z,29.7858,-84.8752,25.0,1.8,1111122 
NERRS,ioos:station:NOAA.NERRS:apaebwq:1,2017-08-06T03:45:00Z,29.7858,-84.8752,22.28,1.9,1111122 
NERRS,ioos:station:NOAA.NERRS:apaebwq:1,2017-08-06T04:45:00Z,29.7858,-84.8752,18.83,2.0,1111122 
NERRS,ioos:station:NOAA.NERRS:apaebwq:1,2017-08-06T05:45:00Z,29.7858,-84.8752,16.76,2.2,1111122 
NERRS,ioos:station:NOAA.NERRS:apaebwq:1,2017-08-06T06:45:00Z,29.7858,-84.8752,18.53,2.2,1111122 
NERRS,ioos:station:NOAA.NERRS:apaebwq:1,2017-08-06T07:45:00Z,29.7858,-84.8752,19.81,2.3,1111122 
NERRS,ioos:station:NOAA.NERRS:apaebwq:1,2017-08-06T08:45:00Z,29.7858,-84.8752,22.05,2.4,1111122 
NERRS,ioos:station:NOAA.NERRS:apaebwq:1,2017-08-06T09:45:00Z,29.7858,-84.8752,22.25,2.4,1111122 
NERRS,ioos:station:NOAA.NERRS:apaebwq:1,2017-08-06T10:45:00Z,29.7858,-84.8752,20.07,2.3,1111122 
NERRS,ioos:station:NOAA.NERRS:apaebwq:1,2017-08-06T11:45:00Z,29.7858,-84.8752,18.25,2.2,1111122 
NERRS,ioos:station:NOAA.NERRS:apaebwq:1,2017-08-06T12:45:00Z,29.7858,-84.8752,23.88,2.2,1111122 
NERRS,ioos:station:NOAA.NERRS:apaebwq:1,2017-08-06T13:45:00Z,29.7858,-84.8752,23.0,2.2,1111122 
NERRS,ioos:station:NOAA.NERRS:apaebwq:1,2017-08-06T14:45:00Z,29.7858,-84.8752,22.95,2.2,1111122 
NERRS,ioos:station:NOAA.NERRS:apaebwq:1,2017-08-06T15:45:00Z,29.7858,-84.8752,27.73,2.3,1111122 
NERRS,ioos:station:NOAA.NERRS:apaebwq:1,2017-08-06T16:45:00Z,29.7858,-84.8752,19.05,2.4,1111122 
NERRS,ioos:station:NOAA.NERRS:apaebwq:1,2017-08-06T17:45:00Z,29.7858,-84.8752,41.84,2.4,1111122 
NERRS,ioos:station:NOAA.NERRS:apaebwq:1,2017-08-06T18:45:00Z,29.7858,-84.8752,28.92,2.4,1111122 
NERRS,ioos:station:NOAA.NERRS:apaebwq:1,2017-08-06T19:45:00Z,29.7858,-84.8752,23.07,2.4,1111122 
NERRS,ioos:station:NOAA.NERRS:apaebwq:1,2017-08-06T20:45:00Z,29.7858,-84.8752,22.85,2.3,1111122 
NERRS,ioos:station:NOAA.NERRS:apaebwq:1,2017-08-06T21:45:00Z,29.7858,-84.8752,25.09,2.2,1111122 
NERRS,ioos:station:NOAA.NERRS:apaebwq:1,2017-08-06T22:45:00Z,29.7858,-84.8752,26.03,2.1,1111122 
NERRS,ioos:station:NOAA.NERRS:apaebwq:1,2017-08-06T23:45:00Z,29.7858,-84.8752,34.36,2.0,1111122 
NERRS,ioos:station:NOAA.NERRS:apaebwq:1,2017-08-07T00:45:00Z,29.7858,-84.8752,23.35,1.9,1111122 
NERRS,ioos:station:NOAA.NERRS:apaebwq:1,2017-08-07T01:45:00Z,29.7858,-84.8752,27.85,1.8,1111122 
NERRS,ioos:station:NOAA.NERRS:apaebwq:1,2017-08-07T02:45:00Z,29.7858,-84.8752,20.35,1.8,1111122 
NERRS,ioos:station:NOAA.NERRS:apaebwq:1,2017-08-07T03:45:00Z,29.7858,-84.8752,12.3,1.9,1111122 
NERRS,ioos:station:NOAA.NERRS:apaebwq:1,2017-08-07T04:45:00Z,29.7858,-84.8752,24.8,2.0,1111122 
NERRS,ioos:station:NOAA.NERRS:apaebwq:1,2017-08-07T05:45:00Z,29.7858,-84.8752,16.63,2.2,1111122 
NERRS,ioos:station:NOAA.NERRS:apaebwq:1,2017-08-07T06:45:00Z,29.7858,-84.8752,18.4,2.3,1111122 
NERRS,ioos:station:NOAA.NERRS:apaebwq:1,2017-08-07T07:45:00Z,29.7858,-84.8752,18.36,2.4,1111122 
NERRS,ioos:station:NOAA.NERRS:apaebwq:1,2017-08-07T08:45:00Z,29.7858,-84.8752,13.85,2.4,1111122 
NERRS,ioos:station:NOAA.NERRS:apaebwq:1,2017-08-07T09:45:00Z,29.7858,-84.8752,12.1,2.4,1111122 
NERRS,ioos:station:NOAA.NERRS:apaebwq:1,2017-08-07T10:45:00Z,29.7858,-84.8752,19.63,2.3,1111122 
NERRS,ioos:station:NOAA.NERRS:apaebwq:1,2017-08-07T11:45:00Z,29.7858,-84.8752,28.87,2.3,1111122 
NERRS,ioos:station:NOAA.NERRS:apaebwq:1,2017-08-07T12:45:00Z,29.7858,-84.8752,20.41,2.2,1111122 
NERRS,ioos:station:NOAA.NERRS:apaebwq:1,2017-08-07T13:45:00Z,29.7858,-84.8752,19.9,2.2,1111122 
NERRS,ioos:station:NOAA.NERRS:apaebwq:1,2017-08-07T14:45:00Z,29.7858,-84.8752,20.62,2.3,1111122 
NERRS,ioos:station:NOAA.NERRS:apaebwq:1,2017-08-07T15:45:00Z,29.7858,-84.8752,14.74,2.3,1111122 
NERRS,ioos:station:NOAA.NERRS:apaebwq:1,2017-08-07T16:45:00Z,29.7858,-84.8752,18.11,2.4,1111122 
NERRS,ioos:station:NOAA.NERRS:apaebwq:1,2017-08-07T17:45:00Z,29.7858,-84.8752,17.39,2.5,1111122 
NERRS,ioos:station:NOAA.NERRS:apaebwq:1,2017-08-07T18:45:00Z,29.7858,-84.8752,35.15,2.5,1111122 
NERRS,ioos:station:NOAA.NERRS:apaebwq:1,2017-08-07T19:45:00Z,29.7858,-84.8752,14.86,2.5,1111122 
NERRS,ioos:station:NOAA.NERRS:apaebwq:1,2017-08-07T20:45:00Z,29.7858,-84.8752,26.86,2.5,1111122 
NERRS,ioos:station:NOAA.NERRS:apaebwq:1,2017-08-07T21:45:00Z,29.7858,-84.8752,21.33,2.3,1111122 
NERRS,ioos:station:NOAA.NERRS:apaebwq:1,2017-08-07T22:45:00Z,29.7858,-84.8752,22.54,2.2,1111122 
NERRS,ioos:station:NOAA.NERRS:apaebwq:1,2017-08-07T23:45:00Z,29.7858,-84.8752,22.53,2.1,1111122 
NERRS,ioos:station:NOAA.NERRS:apaebwq:1,2017-08-08T00:45:00Z,29.7858,-84.8752,18.21,2.0,1111122 
NERRS,ioos:station:NOAA.NERRS:apaebwq:1,2017-08-08T01:45:00Z,29.7858,-84.8752,11.99,1.9,1111122 
NERRS,ioos:station:NOAA.NERRS:apaebwq:1,2017-08-08T02:45:00Z,29.7858,-84.8752,13.44,1.8,1111122 
NERRS,ioos:station:NOAA.NERRS:apaebwq:1,2017-08-08T03:45:00Z,29.7858,-84.8752,12.56,1.8,1111122 
NERRS,ioos:station:NOAA.NERRS:apaebwq:1,2017-08-08T04:45:00Z,29.7858,-84.8752,17.31,1.9,1111122 
NERRS,ioos:station:NOAA.NERRS:apaebwq:1,2017-08-08T05:45:00Z,29.7858,-84.8752,15.0,2.0,1111122 
NERRS,ioos:station:NOAA.NERRS:apaebwq:1,2017-08-08T06:45:00Z,29.7858,-84.8752,14.7,2.2,1111122 
NERRS,ioos:station:NOAA.NERRS:apaebwq:1,2017-08-08T07:45:00Z,29.7858,-84.8752,13.02,2.3,1111122 
NERRS,ioos:station:NOAA.NERRS:apaebwq:1,2017-08-08T08:45:00Z,29.7858,-84.8752,13.66,2.4,1111122 
NERRS,ioos:station:NOAA.NERRS:apaebwq:1,2017-08-08T09:45:00Z,29.7858,-84.8752,12.92,2.4,1111122 
NERRS,ioos:station:NOAA.NERRS:apaebwq:1,2017-08-08T10:45:00Z,29.7858,-84.8752,11.66,2.3,1111122 
NERRS,ioos:station:NOAA.NERRS:apaebwq:1,2017-08-08T11:45:00Z,29.7858,-84.8752,15.54,2.3,1111122 
NERRS,ioos:station:NOAA.NERRS:apaebwq:1,2017-08-08T12:45:00Z,29.7858,-84.8752,17.95,2.2,1111122 
NERRS,ioos:station:NOAA.NERRS:apaebwq:1,2017-08-08T13:45:00Z,29.7858,-84.8752,16.18,2.1,1111122 
NERRS,ioos:station:NOAA.NERRS:apaebwq:1,2017-08-08T14:45:00Z,29.7858,-84.8752,37.95,2.1,1111122 
NERRS,ioos:station:NOAA.NERRS:apaebwq:1,2017-08-08T15:45:00Z,29.7858,-84.8752,19.45,2.1,1111122 
NERRS,ioos:station:NOAA.NERRS:apaebwq:1,2017-08-08T16:45:00Z,29.7858,-84.8752,24.08,2.3,1111122 
NERRS,ioos:station:NOAA.NERRS:apaebwq:1,2017-08-08T17:45:00Z,29.7858,-84.8752,18.55,2.4,1111122 
NERRS,ioos:station:NOAA.NERRS:apaebwq:1,2017-08-08T18:45:00Z,29.7858,-84.8752,10.52,2.5,1111122 
NERRS,ioos:station:NOAA.NERRS:apaebwq:1,2017-08-08T19:45:00Z,29.7858,-84.8752,13.56,2.5,1111122 
NERRS,ioos:station:NOAA.NERRS:apaebwq:1,2017-08-08T20:45:00Z,29.7858,-84.8752,12.33,2.5,1111122 
NERRS,ioos:station:NOAA.NERRS:apaebwq:1,2017-08-08T21:45:00Z,29.7858,-84.8752,16.55,2.4,1111122 
NERRS,ioos:station:NOAA.NERRS:apaebwq:1,2017-08-08T22:45:00Z,29.7858,-84.8752,13.11,2.3,1111122 
NERRS,ioos:station:NOAA.NERRS:apaebwq:1,2017-08-08T23:45:00Z,29.7858,-84.8752,18.85,2.2,1111122 
NERRS,ioos:station:NOAA.NERRS:apaebwq:1,2017-08-09T00:45:00Z,29.7858,-84.8752,11.22,2.0,1111122 
NERRS,ioos:station:NOAA.NERRS:apaebwq:1,2017-08-09T01:45:00Z,29.7858,-84.8752,9.91,1.9,1111122 
NERRS,ioos:station:NOAA.NERRS:apaebwq:1,2017-08-09T02:45:00Z,29.7858,-84.8752,6.11,1.8,1111122 
NERRS,ioos:station:NOAA.NERRS:apaebwq:1,2017-08-09T03:45:00Z,29.7858,-84.8752,5.33,1.8,1111122 
NERRS,ioos:station:NOAA.NERRS:apaebwq:1,2017-08-09T04:45:00Z,29.7858,-84.8752,11.5,1.8,1111122 
NERRS,ioos:station:NOAA.NERRS:apaebwq:1,2017-08-09T05:45:00Z,29.7858,-84.8752,9.46,1.9,1111122 
NERRS,ioos:station:NOAA.NERRS:apaebwq:1,2017-08-09T06:45:00Z,29.7858,-84.8752,7.55,2.1,1111122 
NERRS,ioos:station:NOAA.NERRS:apaebwq:1,2017-08-09T07:45:00Z,29.7858,-84.8752,8.21,2.3,1111122 
NERRS,ioos:station:NOAA.NERRS:apaebwq:1,2017-08-09T08:45:00Z,29.7858,-84.8752,9.01,2.4,1111122 
NERRS,ioos:station:NOAA.NERRS:apaebwq:1,2017-08-09T09:45:00Z,29.7858,-84.8752,9.76,2.4,1111122 
NERRS,ioos:station:NOAA.NERRS:apaebwq:1,2017-08-09T10:45:00Z,29.7858,-84.8752,10.1,2.4,1111122 
NERRS,ioos:station:NOAA.NERRS:apaebwq:1,2017-08-09T11:45:00Z,29.7858,-84.8752,8.88,2.3,1111122 
NERRS,ioos:station:NOAA.NERRS:apaebwq:1,2017-08-09T12:45:00Z,29.7858,-84.8752,10.14,2.3,1111122 
NERRS,ioos:station:NOAA.NERRS:apaebwq:1,2017-08-09T13:45:00Z,29.7858,-84.8752,8.82,2.2,1111122 
NERRS,ioos:station:NOAA.NERRS:apaebwq:1,2017-08-09T14:45:00Z,29.7858,-84.8752,14.77,2.2,1111122 
NERRS,ioos:station:NOAA.NERRS:apaebwq:1,2017-08-09T15:45:00Z,29.7858,-84.8752,11.04,2.2,1111122 
NERRS,ioos:station:NOAA.NERRS:apaebwq:1,2017-08-09T22:45:00Z,29.7858,-84.8752,12.28,2.4,1111122 
NERRS,ioos:station:NOAA.NERRS:apaebwq:1,2017-08-09T23:45:00Z,29.7858,-84.8752,7.6,2.3,1111122 
NERRS,ioos:station:NOAA.NERRS:apaebwq:1,2017-08-10T00:45:00Z,29.7858,-84.8752,9.61,2.1,1111122 
NERRS,ioos:station:NOAA.NERRS:apaebwq:1,2017-08-10T01:45:00Z,29.7858,-84.8752,8.3,2.0,1111122 
NERRS,ioos:station:NOAA.NERRS:apaebwq:1,2017-08-10T02:45:00Z,29.7858,-84.8752,6.59,1.9,1111122 
NERRS,ioos:station:NOAA.NERRS:apaebwq:1,2017-08-10T03:45:00Z,29.7858,-84.8752,7.16,1.8,1111122 
NERRS,ioos:station:NOAA.NERRS:apaebwq:1,2017-08-10T04:45:00Z,29.7858,-84.8752,5.38,1.8,1111122 
NERRS,ioos:station:NOAA.NERRS:apaebwq:1,2017-08-10T05:45:00Z,29.7858,-84.8752,5.64,1.8,1111122 
NERRS,ioos:station:NOAA.NERRS:apaebwq:1,2017-08-10T06:45:00Z,29.7858,-84.8752,9.2,2.0,1111122 
NERRS,ioos:station:NOAA.NERRS:apaebwq:1,2017-08-10T07:45:00Z,29.7858,-84.8752,8.9,2.2,1111122 
NERRS,ioos:station:NOAA.NERRS:apaebwq:1,2017-08-10T08:45:00Z,29.7858,-84.8752,7.8,2.3,1111122 
NERRS,ioos:station:NOAA.NERRS:apaebwq:1,2017-08-10T09:45:00Z,29.7858,-84.8752,9.42,2.3,1111122 
NERRS,ioos:station:NOAA.NERRS:apaebwq:1,2017-08-10T10:45:00Z,29.7858,-84.8752,14.44,2.3,1111122 
NERRS,ioos:station:NOAA.NERRS:apaebwq:1,2017-08-10T11:45:00Z,29.7858,-84.8752,13.32,2.3,1111122 
NERRS,ioos:station:NOAA.NERRS:apaebwq:1,2017-08-10T12:45:00Z,29.7858,-84.8752,17.49,2.2,1111122 
NERRS,ioos:station:NOAA.NERRS:apaebwq:1,2017-08-10T13:45:00Z,29.7858,-84.8752,2.13,2.5,1111122 
NERRS,ioos:station:NOAA.NERRS:apaebwq:1,2017-08-10T14:45:00Z,29.7858,-84.8752,2.07,2.0,1111122 
NERRS,ioos:station:NOAA.NERRS:apaebwq:1,2017-08-10T15:45:00Z,29.7858,-84.8752,2.05,2.1,1111122 
NERRS,ioos:station:NOAA.NERRS:apaebwq:1,2017-08-10T16:45:00Z,29.7858,-84.8752,2.05,2.7,1111122 
NERRS,ioos:station:NOAA.NERRS:apaebwq:1,2017-08-10T17:45:00Z,29.7858,-84.8752,2.1,2.5,1111122 
NERRS,ioos:station:NOAA.NERRS:apaebwq:1,2017-08-10T18:45:00Z,29.7858,-84.8752,2.21,2.6,1111122 
NERRS,ioos:station:NOAA.NERRS:apaebwq:1,2017-08-10T19:45:00Z,29.7858,-84.8752,2.31,2.8,1111122 
NERRS,ioos:station:NOAA.NERRS:apaebwq:1,2017-08-10T20:45:00Z,29.7858,-84.8752,2.36,2.8,1111122 
NERRS,ioos:station:NOAA.NERRS:apaebwq:1,2017-08-10T21:45:00Z,29.7858,-84.8752,2.36,2.7,1111122 
NERRS,ioos:station:NOAA.NERRS:apaebwq:1,2017-08-10T22:45:00Z,29.7858,-84.8752,2.31,2.4,1111122 
NERRS,ioos:station:NOAA.NERRS:apaebwq:1,2017-08-10T23:45:00Z,29.7858,-84.8752,2.21,1.2,1111122 
NERRS,ioos:station:NOAA.NERRS:apaebwq:1,2017-08-11T00:45:00Z,29.7858,-84.8752,2.09,1.6,1111122 
NERRS,ioos:station:NOAA.NERRS:apaebwq:1,2017-08-11T01:45:00Z,29.7858,-84.8752,1.99,1.9,1111122 
NERRS,ioos:station:NOAA.NERRS:apaebwq:1,2017-08-11T02:45:00Z,29.7858,-84.8752,1.89,1.8,1111122 
NERRS,ioos:station:NOAA.NERRS:apaebwq:1,2017-08-11T03:45:00Z,29.7858,-84.8752,1.8,1.5,1111122 
NERRS,ioos:station:NOAA.NERRS:apaebwq:1,2017-08-11T04:45:00Z,29.7858,-84.8752,1.76,1.6,1111122 
NERRS,ioos:station:NOAA.NERRS:apaebwq:1,2017-08-11T06:45:00Z,29.7858,-84.8752,1.85,2.0,1111122 
NERRS,ioos:station:NOAA.NERRS:apaebwq:1,2017-08-11T07:45:00Z,29.7858,-84.8752,1.99,2.5,1111122 
NERRS,ioos:station:NOAA.NERRS:apaebwq:1,2017-08-11T08:45:00Z,29.7858,-84.8752,2.14,2.4,1111122 
NERRS,ioos:station:NOAA.NERRS:apaebwq:1,2017-08-11T09:45:00Z,29.7858,-84.8752,2.24,1.9,1111122 
NERRS,ioos:station:NOAA.NERRS:apaebwq:1,2017-08-11T10:45:00Z,29.7858,-84.8752,2.25,1.7,1111122 
NERRS,ioos:station:NOAA.NERRS:apaebwq:1,2017-08-11T11:45:00Z,29.7858,-84.8752,2.24,1.5,1111122 
NERRS,ioos:station:NOAA.NERRS:apaebwq:1,2017-08-11T12:45:00Z,29.7858,-84.8752,2.17,1.7,1111122 
NERRS,ioos:station:NOAA.NERRS:apaebwq:1,2017-08-11T13:45:00Z,29.7858,-84.8752,2.1,1.1,1111122 
NERRS,ioos:station:NOAA.NERRS:apaebwq:1,2017-08-11T14:45:00Z,29.7858,-84.8752,2.02,0.8,1111122 
NERRS,ioos:station:NOAA.NERRS:apaebwq:1,2017-08-11T15:45:00Z,29.7858,-84.8752,1.97,1.2,1111122 
NERRS,ioos:station:NOAA.NERRS:apaebwq:1,2017-08-11T16:45:00Z,29.7858,-84.8752,1.95,1.2,1111122 
NERRS,ioos:station:NOAA.NERRS:apaebwq:1,2017-08-11T17:45:00Z,29.7858,-84.8752,1.97,1.4,1111122 
NERRS,ioos:station:NOAA.NERRS:apaebwq:1,2017-08-11T18:45:00Z,29.7858,-84.8752,2.05,1.2,1111122 
NERRS,ioos:station:NOAA.NERRS:apaebwq:1,2017-08-11T19:45:00Z,29.7858,-84.8752,2.18,1.1,1111122 
NERRS,ioos:station:NOAA.NERRS:apaebwq:1,2017-08-11T20:45:00Z,29.7858,-84.8752,2.24,1.0,1111122 
NERRS,ioos:station:NOAA.NERRS:apaebwq:1,2017-08-11T21:45:00Z,29.7858,-84.8752,2.26,0.7,1111122 
NERRS,ioos:station:NOAA.NERRS:apaebwq:1,2017-08-11T22:45:00Z,29.7858,-84.8752,2.3,0.7,1111122 
NERRS,ioos:station:NOAA.NERRS:apaebwq:1,2017-08-11T23:45:00Z,29.7858,-84.8752,2.24,0.7,1111122 
NERRS,ioos:station:NOAA.NERRS:apaebwq:1,2017-08-12T00:45:00Z,29.7858,-84.8752,2.11,1.1,1111122 
NERRS,ioos:station:NOAA.NERRS:apaebwq:1,2017-08-12T01:45:00Z,29.7858,-84.8752,1.98,1.0,1111122 
NERRS,ioos:station:NOAA.NERRS:apaebwq:1,2017-08-12T02:45:00Z,29.7858,-84.8752,1.89,0.7,1111122 
NERRS,ioos:station:NOAA.NERRS:apaebwq:1,2017-08-12T03:45:00Z,29.7858,-84.8752,1.81,0.7,1111122 
NERRS,ioos:station:NOAA.NERRS:apaebwq:1,2017-08-12T04:45:00Z,29.7858,-84.8752,1.75,0.5,1111122 
NERRS,ioos:station:NOAA.NERRS:apaebwq:1,2017-08-12T05:45:00Z,29.7858,-84.8752,1.76,1.1,1111122 
NERRS,ioos:station:NOAA.NERRS:apaebwq:1,2017-08-12T06:45:00Z,29.7858,-84.8752,1.82,1.2,1111122 
NERRS,ioos:station:NOAA.NERRS:apaebwq:1,2017-08-12T07:45:00Z,29.7858,-84.8752,1.93,1.3,1111122 
NERRS,ioos:station:NOAA.NERRS:apaebwq:1,2017-08-12T08:45:00Z,29.7858,-84.8752,2.04,3.0,1111122 
NERRS,ioos:station:NOAA.NERRS:apaebwq:1,2017-08-12T09:45:00Z,29.7858,-84.8752,2.16,1.7,1111122 
NERRS,ioos:station:NOAA.NERRS:apaebwq:1,2017-08-12T10:45:00Z,29.7858,-84.8752,2.24,2.0,1111122 
NERRS,ioos:station:NOAA.NERRS:apaebwq:1,2017-08-12T11:45:00Z,29.7858,-84.8752,2.27,1.3,1111122 
NERRS,ioos:station:NOAA.NERRS:apaebwq:1,2017-08-12T12:45:00Z,29.7858,-84.8752,2.22,1.0,1111122 
NERRS,ioos:station:NOAA.NERRS:apaebwq:1,2017-08-12T13:45:00Z,29.7858,-84.8752,2.14,0.7,1111122 
NERRS,ioos:station:NOAA.NERRS:apaebwq:1,2017-08-12T15:45:00Z,29.7858,-84.8752,2.01,1.4,1111122 
NERRS,ioos:station:NOAA.NERRS:apaebwq:1,2017-08-12T16:45:00Z,29.7858,-84.8752,1.9,1.2,1111122 
NERRS,ioos:station:NOAA.NERRS:apaebwq:1,2017-08-12T17:45:00Z,29.7858,-84.8752,1.85,0.9,1111122 
NERRS,ioos:station:NOAA.NERRS:apaebwq:1,2017-08-12T18:45:00Z,29.7858,-84.8752,1.9,0.6,1111122 
NERRS,ioos:station:NOAA.NERRS:apaebwq:1,2017-08-12T19:45:00Z,29.7858,-84.8752,2.0,0.7,1111122 
NERRS,ioos:station:NOAA.NERRS:apaebwq:1,2017-08-12T20:45:00Z,29.7858,-84.8752,2.11,0.6,1111122 
NERRS,ioos:station:NOAA.NERRS:apaebwq:1,2017-08-12T21:45:00Z,29.7858,-84.8752,2.22,0.7,1111122 
NERRS,ioos:station:NOAA.NERRS:apaebwq:1,2017-08-12T22:45:00Z,29.7858,-84.8752,2.27,0.5,1111122 
NERRS,ioos:station:NOAA.NERRS:apaebwq:1,2017-08-12T23:45:00Z,29.7858,-84.8752,2.28,0.5,1111122 
NERRS,ioos:station:NOAA.NERRS:apaebwq:1,2017-08-13T00:45:00Z,29.7858,-84.8752,2.21,0.2,1111122 
NERRS,ioos:station:NOAA.NERRS:apaebwq:1,2017-08-13T01:45:00Z,29.7858,-84.8752,2.11,1.2,1111122 
NERRS,ioos:station:NOAA.NERRS:apaebwq:1,2017-08-13T02:45:00Z,29.7858,-84.8752,2.02,0.9,1111122 
NERRS,ioos:station:NOAA.NERRS:apaebwq:1,2017-08-13T03:45:00Z,29.7858,-84.8752,1.95,0.3,1111122 
NERRS,ioos:station:NOAA.NERRS:apaebwq:1,2017-08-13T04:45:00Z,29.7858,-84.8752,1.9,0.2,1111122 
NERRS,ioos:station:NOAA.NERRS:apaebwq:1,2017-08-13T05:45:00Z,29.7858,-84.8752,1.86,0.2,1111122 
NERRS,ioos:station:NOAA.NERRS:apaebwq:1,2017-08-13T06:45:00Z,29.7858,-84.8752,1.87,1.3,1111122 
NERRS,ioos:station:NOAA.NERRS:apaebwq:1,2017-08-13T07:45:00Z,29.7858,-84.8752,1.95,3.6,1111122 
NERRS,ioos:station:NOAA.NERRS:apaebwq:1,2017-08-13T08:45:00Z,29.7858,-84.8752,2.06,3.4,1111122 
NERRS,ioos:station:NOAA.NERRS:apaebwq:1,2017-08-13T09:45:00Z,29.7858,-84.8752,2.17,3.5,1111122 
NERRS,ioos:station:NOAA.NERRS:apaebwq:1,2017-08-13T10:45:00Z,29.7858,-84.8752,2.26,3.6,1111122 
NERRS,ioos:station:NOAA.NERRS:apaebwq:1,2017-08-13T11:45:00Z,29.7858,-84.8752,2.3,3.4,1111122 
NERRS,ioos:station:NOAA.NERRS:apaebwq:1,2017-08-13T12:45:00Z,29.7858,-84.8752,2.28,3.8,1111122 
NERRS,ioos:station:NOAA.NERRS:apaebwq:1,2017-08-13T13:45:00Z,29.7858,-84.8752,2.22,3.3,1111122 
NERRS,ioos:station:NOAA.NERRS:apaebwq:1,2017-08-13T14:45:00Z,29.7858,-84.8752,2.11,3.3,1111122 
NERRS,ioos:station:NOAA.NERRS:apaebwq:1,2017-08-13T15:45:00Z,29.7858,-84.8752,2.0,3.4,1111122 
NERRS,ioos:station:NOAA.NERRS:apaebwq:1,2017-08-13T16:45:00Z,29.7858,-84.8752,1.92,3.2,1111122 